Year,Month,Day,Hour,Minute,Value (Times are PST for temperature in C)
2014,04,02,00,00,8.60
2014,04,02,00,01,8.60
2014,04,02,00,02,8.60
2014,04,02,00,03,8.60
2014,04,02,00,04,8.60
2014,04,02,00,05,8.60
2014,04,02,00,06,8.60
2014,04,02,00,07,8.60
2014,04,02,00,08,8.60
2014,04,02,00,09,8.60
2014,04,02,00,10,8.60
2014,04,02,00,11,8.60
2014,04,02,00,12,8.60
2014,04,02,00,13,8.60
2014,04,02,00,14,8.60
2014,04,02,00,15,8.60
2014,04,02,00,16,8.60
2014,04,02,00,17,8.60
2014,04,02,00,18,8.60
2014,04,02,00,19,8.60
2014,04,02,00,20,8.60
2014,04,02,00,21,8.50
2014,04,02,00,22,8.50
2014,04,02,00,23,8.50
2014,04,02,00,24,8.50
2014,04,02,00,25,8.50
2014,04,02,00,26,8.40
2014,04,02,00,27,8.40
2014,04,02,00,28,8.40
2014,04,02,00,29,8.40
2014,04,02,00,30,8.40
2014,04,02,00,31,8.30
2014,04,02,00,32,8.30
2014,04,02,00,33,8.30
2014,04,02,00,34,8.30
2014,04,02,00,35,8.30
2014,04,02,00,36,8.30
2014,04,02,00,37,8.20
2014,04,02,00,38,8.20
2014,04,02,00,39,8.20
2014,04,02,00,40,8.20
2014,04,02,00,41,8.20
2014,04,02,00,42,8.20
2014,04,02,00,43,8.20
2014,04,02,00,44,8.20
2014,04,02,00,45,8.20
2014,04,02,00,46,8.20
2014,04,02,00,47,8.20
2014,04,02,00,48,8.20
2014,04,02,00,49,8.20
2014,04,02,00,50,8.10
2014,04,02,00,51,8.10
2014,04,02,00,52,8.10
2014,04,02,00,53,8.10
2014,04,02,00,54,8.00
2014,04,02,00,55,8.00
2014,04,02,00,56,8.00
2014,04,02,00,57,7.90
2014,04,02,00,58,7.90
2014,04,02,00,59,7.90
2014,04,02,01,00,7.90
2014,04,02,01,01,7.80
2014,04,02,01,02,7.80
2014,04,02,01,03,7.80
2014,04,02,01,04,7.80
2014,04,02,01,05,7.80
2014,04,02,01,06,7.80
2014,04,02,01,07,7.70
2014,04,02,01,08,7.70
2014,04,02,01,09,7.70
2014,04,02,01,10,7.60
2014,04,02,01,11,7.60
2014,04,02,01,12,7.60
2014,04,02,01,13,7.60
2014,04,02,01,14,7.60
2014,04,02,01,15,7.60
2014,04,02,01,16,7.60
2014,04,02,01,17,7.60
2014,04,02,01,18,7.60
2014,04,02,01,19,7.60
2014,04,02,01,20,7.60
2014,04,02,01,21,7.60
2014,04,02,01,22,7.60
2014,04,02,01,23,7.70
2014,04,02,01,24,7.70
2014,04,02,01,25,7.70
2014,04,02,01,26,7.70
2014,04,02,01,27,7.70
2014,04,02,01,28,7.70
2014,04,02,01,29,7.70
2014,04,02,01,30,7.70
2014,04,02,01,31,7.70
2014,04,02,01,32,7.80
2014,04,02,01,33,7.80
2014,04,02,01,34,7.80
2014,04,02,01,35,7.80
2014,04,02,01,36,7.80
2014,04,02,01,37,7.80
2014,04,02,01,38,7.80
2014,04,02,01,39,7.80
2014,04,02,01,40,7.80
2014,04,02,01,41,7.80
2014,04,02,01,42,7.80
2014,04,02,01,43,7.80
2014,04,02,01,44,7.80
2014,04,02,01,45,7.80
2014,04,02,01,46,7.70
2014,04,02,01,47,7.70
2014,04,02,01,48,7.70
2014,04,02,01,49,7.70
2014,04,02,01,50,7.60
2014,04,02,01,51,7.60
2014,04,02,01,52,7.60
2014,04,02,01,53,7.60
2014,04,02,01,54,7.50
2014,04,02,01,55,7.50
2014,04,02,01,56,7.50
2014,04,02,01,57,7.50
2014,04,02,01,58,7.40
2014,04,02,01,59,7.40
2014,04,02,02,00,7.40
2014,04,02,02,01,7.40
2014,04,02,02,02,7.30
2014,04,02,02,03,7.30
2014,04,02,02,04,7.30
2014,04,02,02,05,7.30
2014,04,02,02,06,7.30
2014,04,02,02,07,7.20
2014,04,02,02,08,7.20
2014,04,02,02,09,7.20
2014,04,02,02,10,7.20
2014,04,02,02,11,7.20
2014,04,02,02,12,7.20
2014,04,02,02,13,7.20
2014,04,02,02,14,7.10
2014,04,02,02,15,7.10
2014,04,02,02,16,7.10
2014,04,02,02,17,7.10
2014,04,02,02,18,7.10
2014,04,02,02,19,7.00
2014,04,02,02,20,7.00
2014,04,02,02,21,7.00
2014,04,02,02,22,7.00
2014,04,02,02,23,7.00
2014,04,02,02,24,7.00
2014,04,02,02,25,7.00
2014,04,02,02,26,7.00
2014,04,02,02,27,7.00
2014,04,02,02,28,7.00
2014,04,02,02,29,7.00
2014,04,02,02,30,7.00
2014,04,02,02,31,7.00
2014,04,02,02,32,6.90
2014,04,02,02,33,6.90
2014,04,02,02,34,6.80
2014,04,02,02,35,6.80
2014,04,02,02,36,6.70
2014,04,02,02,37,6.60
2014,04,02,02,38,6.50
2014,04,02,02,39,6.40
2014,04,02,02,40,6.30
2014,04,02,02,41,6.20
2014,04,02,02,42,6.10
2014,04,02,02,43,6.00
2014,04,02,02,44,6.00
2014,04,02,02,45,5.90
2014,04,02,02,46,5.80
2014,04,02,02,47,5.70
2014,04,02,02,48,5.60
2014,04,02,02,49,5.60
2014,04,02,02,50,5.50
2014,04,02,02,51,5.50
2014,04,02,02,52,5.40
2014,04,02,02,53,5.40
2014,04,02,02,54,5.50
2014,04,02,02,55,5.50
2014,04,02,02,56,5.50
2014,04,02,02,57,5.60
2014,04,02,02,58,5.60
2014,04,02,02,59,5.60
2014,04,02,03,00,5.70
2014,04,02,03,01,5.70
2014,04,02,03,02,5.70
2014,04,02,03,03,5.70
2014,04,02,03,04,5.70
2014,04,02,03,05,5.80
2014,04,02,03,06,5.80
2014,04,02,03,07,5.80
2014,04,02,03,08,5.80
2014,04,02,03,09,5.80
2014,04,02,03,10,5.80
2014,04,02,03,11,5.80
2014,04,02,03,12,5.90
2014,04,02,03,13,6.00
2014,04,02,03,14,6.10
2014,04,02,03,15,6.20
2014,04,02,03,16,6.20
2014,04,02,03,17,6.30
2014,04,02,03,18,6.40
2014,04,02,03,19,6.40
2014,04,02,03,20,6.40
2014,04,02,03,21,6.60
2014,04,02,03,22,6.60
2014,04,02,03,23,6.60
2014,04,02,03,24,6.60
2014,04,02,03,25,6.60
2014,04,02,03,26,6.60
2014,04,02,03,27,6.60
2014,04,02,03,28,6.60
2014,04,02,03,29,6.60
2014,04,02,03,30,6.60
2014,04,02,03,31,6.60
2014,04,02,03,32,6.60
2014,04,02,03,33,6.60
2014,04,02,03,34,6.60
2014,04,02,03,35,6.60
2014,04,02,03,36,6.40
2014,04,02,03,37,6.50
2014,04,02,03,38,6.60
2014,04,02,03,39,6.60
2014,04,02,03,40,6.60
2014,04,02,03,41,6.60
2014,04,02,03,42,6.60
2014,04,02,03,43,6.60
2014,04,02,03,44,6.60
2014,04,02,03,45,6.60
2014,04,02,03,46,6.60
2014,04,02,03,47,6.60
2014,04,02,03,48,6.60
2014,04,02,03,49,6.50
2014,04,02,03,50,6.40
2014,04,02,03,51,6.40
2014,04,02,03,52,6.40
2014,04,02,03,53,6.40
2014,04,02,03,54,6.30
2014,04,02,03,55,6.30
2014,04,02,03,56,6.20
2014,04,02,03,57,6.10
2014,04,02,03,58,6.00
2014,04,02,03,59,5.80
2014,04,02,04,00,5.70
2014,04,02,04,01,5.60
2014,04,02,04,02,5.40
2014,04,02,04,03,5.20
2014,04,02,04,04,5.10
2014,04,02,04,05,5.00
2014,04,02,04,06,4.90
2014,04,02,04,07,4.80
2014,04,02,04,08,4.80
2014,04,02,04,09,4.80
2014,04,02,04,10,4.70
2014,04,02,04,11,4.70
2014,04,02,04,12,4.70
2014,04,02,04,13,4.60
2014,04,02,04,14,4.60
2014,04,02,04,15,4.60
2014,04,02,04,16,4.60
2014,04,02,04,17,4.60
2014,04,02,04,18,4.60
2014,04,02,04,19,4.60
2014,04,02,04,20,4.60
2014,04,02,04,21,4.60
2014,04,02,04,22,4.50
2014,04,02,04,23,4.50
2014,04,02,04,24,4.50
2014,04,02,04,25,4.40
2014,04,02,04,26,4.40
2014,04,02,04,27,4.30
2014,04,02,04,28,4.30
2014,04,02,04,29,4.30
2014,04,02,04,30,4.20
2014,04,02,04,31,4.20
2014,04,02,04,32,4.20
2014,04,02,04,33,4.20
2014,04,02,04,34,4.10
2014,04,02,04,35,4.00
2014,04,02,04,36,4.00
2014,04,02,04,37,4.00
2014,04,02,04,38,3.90
2014,04,02,04,39,3.90
2014,04,02,04,40,3.80
2014,04,02,04,41,3.80
2014,04,02,04,42,3.80
2014,04,02,04,43,3.80
2014,04,02,04,44,3.80
2014,04,02,04,45,3.70
2014,04,02,04,46,3.70
2014,04,02,04,47,3.70
2014,04,02,04,48,3.70
2014,04,02,04,49,3.60
2014,04,02,04,50,3.60
2014,04,02,04,51,3.60
2014,04,02,04,52,3.60
2014,04,02,04,53,3.50
2014,04,02,04,54,3.50
2014,04,02,04,55,3.50
2014,04,02,04,56,3.50
2014,04,02,04,57,3.40
2014,04,02,04,58,3.40
2014,04,02,04,59,3.40
2014,04,02,05,00,3.40
2014,04,02,05,01,3.40
2014,04,02,05,02,3.40
2014,04,02,05,03,3.40
2014,04,02,05,04,3.50
2014,04,02,05,05,3.50
2014,04,02,05,06,3.50
2014,04,02,05,07,3.40
2014,04,02,05,08,3.40
2014,04,02,05,09,3.40
2014,04,02,05,10,3.40
2014,04,02,05,11,3.40
2014,04,02,05,12,3.40
2014,04,02,05,13,3.40
2014,04,02,05,14,3.40
2014,04,02,05,15,3.40
2014,04,02,05,16,3.40
2014,04,02,05,17,3.40
2014,04,02,05,18,3.40
2014,04,02,05,19,3.30
2014,04,02,05,20,3.20
2014,04,02,05,21,3.20
2014,04,02,05,22,3.10
2014,04,02,05,23,3.10
2014,04,02,05,24,3.00
2014,04,02,05,25,2.90
2014,04,02,05,26,2.90
2014,04,02,05,27,2.90
2014,04,02,05,28,2.90
2014,04,02,05,29,2.80
2014,04,02,05,30,2.80
2014,04,02,05,31,2.80
2014,04,02,05,32,2.80
2014,04,02,05,33,2.80
2014,04,02,05,34,2.80
2014,04,02,05,35,2.80
2014,04,02,05,36,2.80
2014,04,02,05,37,2.80
2014,04,02,05,38,2.80
2014,04,02,05,39,2.80
2014,04,02,05,40,2.80
2014,04,02,05,41,2.80
2014,04,02,05,42,2.80
2014,04,02,05,43,2.90
2014,04,02,05,44,2.90
2014,04,02,05,45,2.90
2014,04,02,05,46,2.90
2014,04,02,05,47,2.80
2014,04,02,05,48,2.80
2014,04,02,05,49,2.80
2014,04,02,05,50,2.80
2014,04,02,05,51,2.80
2014,04,02,05,52,2.80
2014,04,02,05,53,2.80
2014,04,02,05,54,2.90
2014,04,02,05,55,2.90
2014,04,02,05,56,2.90
2014,04,02,05,57,2.90
2014,04,02,05,58,2.90
2014,04,02,05,59,2.90
2014,04,02,06,00,2.90
2014,04,02,06,01,2.90
2014,04,02,06,02,2.80
2014,04,02,06,03,2.80
2014,04,02,06,04,2.80
2014,04,02,06,05,2.80
2014,04,02,06,06,2.80
2014,04,02,06,07,2.80
2014,04,02,06,08,2.70
2014,04,02,06,09,2.70
2014,04,02,06,10,2.70
2014,04,02,06,11,2.70
2014,04,02,06,12,2.70
2014,04,02,06,13,2.70
2014,04,02,06,14,2.70
2014,04,02,06,15,2.70
2014,04,02,06,16,2.70
2014,04,02,06,17,2.60
2014,04,02,06,18,2.60
2014,04,02,06,19,2.60
2014,04,02,06,20,2.60
2014,04,02,06,21,2.60
2014,04,02,06,22,2.50
2014,04,02,06,23,2.50
2014,04,02,06,24,2.50
2014,04,02,06,25,2.50
2014,04,02,06,26,2.50
2014,04,02,06,27,2.40
2014,04,02,06,28,2.40
2014,04,02,06,29,2.40
2014,04,02,06,30,2.40
2014,04,02,06,31,2.30
2014,04,02,06,32,2.30
2014,04,02,06,33,2.30
2014,04,02,06,34,2.30
2014,04,02,06,35,2.30
2014,04,02,06,36,2.30
2014,04,02,06,37,2.30
2014,04,02,06,38,2.30
2014,04,02,06,39,2.30
2014,04,02,06,40,2.20
2014,04,02,06,41,2.20
2014,04,02,06,42,2.30
2014,04,02,06,43,2.40
2014,04,02,06,44,2.40
2014,04,02,06,45,2.40
2014,04,02,06,46,2.40
2014,04,02,06,47,2.40
2014,04,02,06,48,2.40
2014,04,02,06,49,2.40
2014,04,02,06,50,2.40
2014,04,02,06,51,2.30
2014,04,02,06,52,2.30
2014,04,02,06,53,2.30
2014,04,02,06,54,2.30
2014,04,02,06,55,2.20
2014,04,02,06,56,2.20
2014,04,02,06,57,2.20
2014,04,02,06,58,2.20
2014,04,02,06,59,2.20
2014,04,02,07,00,2.20
2014,04,02,07,01,2.20
2014,04,02,07,02,2.20
2014,04,02,07,03,2.10
2014,04,02,07,04,2.10
2014,04,02,07,05,2.10
2014,04,02,07,06,2.20
2014,04,02,07,07,2.20
2014,04,02,07,08,2.20
2014,04,02,07,09,2.20
2014,04,02,07,10,2.20
2014,04,02,07,11,2.20
2014,04,02,07,12,2.20
2014,04,02,07,13,2.20
2014,04,02,07,14,2.20
2014,04,02,07,15,2.20
2014,04,02,07,16,2.20
2014,04,02,07,17,2.20
2014,04,02,07,18,2.20
2014,04,02,07,19,2.20
2014,04,02,07,20,2.20
2014,04,02,07,21,2.20
2014,04,02,07,22,2.20
2014,04,02,07,23,2.20
2014,04,02,07,24,2.20
2014,04,02,07,25,2.20
2014,04,02,07,26,2.20
2014,04,02,07,27,2.20
2014,04,02,07,28,2.20
2014,04,02,07,29,2.20
2014,04,02,07,30,2.20
2014,04,02,07,31,2.30
2014,04,02,07,32,2.30
2014,04,02,07,33,2.30
2014,04,02,07,34,2.40
2014,04,02,07,35,2.40
2014,04,02,07,36,2.40
2014,04,02,07,37,2.50
2014,04,02,07,38,2.50
2014,04,02,07,39,2.50
2014,04,02,07,40,2.50
2014,04,02,07,41,2.60
2014,04,02,07,42,2.60
2014,04,02,07,43,2.70
2014,04,02,07,44,2.80
2014,04,02,07,45,2.90
2014,04,02,07,46,2.90
2014,04,02,07,47,3.10
2014,04,02,07,48,3.10
2014,04,02,07,49,3.20
2014,04,02,07,50,3.20
2014,04,02,07,51,3.20
2014,04,02,07,52,3.20
2014,04,02,07,53,3.20
2014,04,02,07,54,3.20
2014,04,02,07,55,3.20
2014,04,02,07,56,3.30
2014,04,02,07,57,3.30
2014,04,02,07,58,3.40
2014,04,02,07,59,3.50
2014,04,02,08,00,3.50
2014,04,02,08,01,3.60
2014,04,02,08,02,3.70
2014,04,02,08,03,3.80
2014,04,02,08,04,3.80
2014,04,02,08,05,3.80
2014,04,02,08,06,3.90
2014,04,02,08,07,4.00
2014,04,02,08,08,4.00
2014,04,02,08,09,4.10
2014,04,02,08,10,4.20
2014,04,02,08,11,4.20
2014,04,02,08,12,4.30
2014,04,02,08,13,4.40
2014,04,02,08,14,4.50
2014,04,02,08,15,4.60
2014,04,02,08,16,4.70
2014,04,02,08,17,4.80
2014,04,02,08,18,4.90
2014,04,02,08,19,5.10
2014,04,02,08,20,5.10
2014,04,02,08,21,5.20
2014,04,02,08,22,5.30
2014,04,02,08,23,5.50
2014,04,02,08,24,5.50
2014,04,02,08,25,5.60
2014,04,02,08,26,5.70
2014,04,02,08,27,5.70
2014,04,02,08,28,5.70
2014,04,02,08,29,5.80
2014,04,02,08,30,5.90
2014,04,02,08,31,6.00
2014,04,02,08,32,6.20
2014,04,02,08,33,6.20
2014,04,02,08,34,6.30
2014,04,02,08,35,6.40
2014,04,02,08,36,6.40
2014,04,02,08,37,6.40
2014,04,02,08,38,6.50
2014,04,02,08,39,6.60
2014,04,02,08,40,6.60
2014,04,02,08,41,6.60
2014,04,02,08,42,6.70
2014,04,02,08,43,6.70
2014,04,02,08,44,6.80
2014,04,02,08,45,6.90
2014,04,02,08,46,7.00
2014,04,02,08,47,7.10
2014,04,02,08,48,7.30
2014,04,02,08,49,7.40
2014,04,02,08,50,7.50
2014,04,02,08,51,7.70
2014,04,02,08,52,7.80
2014,04,02,08,53,7.90
2014,04,02,08,54,8.00
2014,04,02,08,55,8.10
2014,04,02,08,56,8.20
2014,04,02,08,57,8.30
2014,04,02,08,58,8.40
2014,04,02,08,59,8.50
2014,04,02,09,00,8.60
2014,04,02,09,01,8.60
2014,04,02,09,02,8.70
2014,04,02,09,03,8.60
2014,04,02,09,04,8.60
2014,04,02,09,05,8.60
2014,04,02,09,06,8.50
2014,04,02,09,07,8.50
2014,04,02,09,08,8.50
2014,04,02,09,09,8.40
2014,04,02,09,10,8.40
2014,04,02,09,11,8.40
2014,04,02,09,12,8.30
2014,04,02,09,13,8.30
2014,04,02,09,14,8.30
2014,04,02,09,15,8.30
2014,04,02,09,16,8.30
2014,04,02,09,17,8.30
2014,04,02,09,18,8.30
2014,04,02,09,19,8.30
2014,04,02,09,20,8.20
2014,04,02,09,21,8.20
2014,04,02,09,22,8.10
2014,04,02,09,23,8.00
2014,04,02,09,24,8.00
2014,04,02,09,25,8.00
2014,04,02,09,26,7.90
2014,04,02,09,27,7.90
2014,04,02,09,28,7.90
2014,04,02,09,29,7.90
2014,04,02,09,30,7.90
2014,04,02,09,31,8.00
2014,04,02,09,32,8.00
2014,04,02,09,33,8.00
2014,04,02,09,34,8.10
2014,04,02,09,35,8.10
2014,04,02,09,36,8.20
2014,04,02,09,37,8.20
2014,04,02,09,38,8.30
2014,04,02,09,39,8.30
2014,04,02,09,40,8.40
2014,04,02,09,41,8.50
2014,04,02,09,42,8.60
2014,04,02,09,43,8.70
2014,04,02,09,44,8.80
2014,04,02,09,45,8.90
2014,04,02,09,46,9.00
2014,04,02,09,47,9.10
2014,04,02,09,48,9.20
2014,04,02,09,49,9.20
2014,04,02,09,50,9.20
2014,04,02,09,51,9.20
2014,04,02,09,52,9.20
2014,04,02,09,53,9.30
2014,04,02,09,54,9.30
2014,04,02,09,55,9.20
2014,04,02,09,56,9.20
2014,04,02,09,57,9.20
2014,04,02,09,58,9.20
2014,04,02,09,59,9.20
2014,04,02,10,00,9.20
2014,04,02,10,01,9.20
2014,04,02,10,02,9.20
2014,04,02,10,03,9.20
2014,04,02,10,04,9.20
2014,04,02,10,05,9.20
2014,04,02,10,06,9.20
2014,04,02,10,07,9.10
2014,04,02,10,08,9.10
2014,04,02,10,09,9.20
2014,04,02,10,10,9.20
2014,04,02,10,11,9.20
2014,04,02,10,12,9.30
2014,04,02,10,13,9.30
2014,04,02,10,14,9.30
2014,04,02,10,15,9.40
2014,04,02,10,16,9.50
2014,04,02,10,17,9.50
2014,04,02,10,18,9.50
2014,04,02,10,19,9.50
2014,04,02,10,20,9.50
2014,04,02,10,21,9.40
2014,04,02,10,22,9.50
2014,04,02,10,23,9.50
2014,04,02,10,24,9.50
2014,04,02,10,25,9.50
2014,04,02,10,26,9.60
2014,04,02,10,27,9.70
2014,04,02,10,28,9.80
2014,04,02,10,29,9.90
2014,04,02,10,30,9.90
2014,04,02,10,31,9.90
2014,04,02,10,32,9.90
2014,04,02,10,33,9.90
2014,04,02,10,34,10.00
2014,04,02,10,35,10.10
2014,04,02,10,36,10.10
2014,04,02,10,37,10.10
2014,04,02,10,38,10.20
2014,04,02,10,39,10.20
2014,04,02,10,40,10.30
2014,04,02,10,41,10.30
2014,04,02,10,42,10.40
2014,04,02,10,43,10.40
2014,04,02,10,44,10.40
2014,04,02,10,45,10.40
2014,04,02,10,46,10.40
2014,04,02,10,47,10.40
2014,04,02,10,48,10.40
2014,04,02,10,49,10.40
2014,04,02,10,50,10.40
2014,04,02,10,51,10.40
2014,04,02,10,52,10.60
2014,04,02,10,53,10.60
2014,04,02,10,54,10.60
2014,04,02,10,55,10.60
2014,04,02,10,56,10.70
2014,04,02,10,57,10.80
2014,04,02,10,58,10.80
2014,04,02,10,59,10.80
2014,04,02,11,00,10.70
2014,04,02,11,01,10.80
2014,04,02,11,02,10.80
2014,04,02,11,03,10.90
2014,04,02,11,04,11.00
2014,04,02,11,05,11.10
2014,04,02,11,06,11.10
2014,04,02,11,07,11.10
2014,04,02,11,08,11.00
2014,04,02,11,09,10.90
2014,04,02,11,10,10.90
2014,04,02,11,11,10.90
2014,04,02,11,12,10.90
2014,04,02,11,13,10.90
2014,04,02,11,14,10.80
2014,04,02,11,15,10.70
2014,04,02,11,16,10.60
2014,04,02,11,17,10.70
2014,04,02,11,18,10.80
2014,04,02,11,19,10.70
2014,04,02,11,20,10.70
2014,04,02,11,21,10.70
2014,04,02,11,22,10.70
2014,04,02,11,23,10.60
2014,04,02,11,24,10.60
2014,04,02,11,25,10.60
2014,04,02,11,26,10.50
2014,04,02,11,27,10.40
2014,04,02,11,28,10.30
2014,04,02,11,29,10.30
2014,04,02,11,30,10.40
2014,04,02,11,31,10.50
2014,04,02,11,32,10.60
2014,04,02,11,33,10.60
2014,04,02,11,34,10.60
2014,04,02,11,35,10.60
2014,04,02,11,36,10.60
2014,04,02,11,37,10.60
2014,04,02,11,38,10.60
2014,04,02,11,39,10.60
2014,04,02,11,40,10.50
2014,04,02,11,41,10.40
2014,04,02,11,42,10.30
2014,04,02,11,43,10.40
2014,04,02,11,44,10.30
2014,04,02,11,45,10.30
2014,04,02,11,46,10.30
2014,04,02,11,47,10.20
2014,04,02,11,48,10.30
2014,04,02,11,49,10.30
2014,04,02,11,50,10.20
2014,04,02,11,51,10.30
2014,04,02,11,52,10.40
2014,04,02,11,53,10.50
2014,04,02,11,54,10.40
2014,04,02,11,55,10.40
2014,04,02,11,56,10.40
2014,04,02,11,57,10.40
2014,04,02,11,58,10.40
2014,04,02,11,59,10.30
2014,04,02,12,00,10.40
2014,04,02,12,01,10.40
2014,04,02,12,02,10.30
2014,04,02,12,03,10.30
2014,04,02,12,04,10.30
2014,04,02,12,05,10.40
2014,04,02,12,06,10.40
2014,04,02,12,07,10.40
2014,04,02,12,08,10.40
2014,04,02,12,09,10.30
2014,04,02,12,10,10.20
2014,04,02,12,11,10.10
2014,04,02,12,12,10.10
2014,04,02,12,13,10.10
2014,04,02,12,14,10.10
2014,04,02,12,15,10.10
2014,04,02,12,16,10.10
2014,04,02,12,17,10.10
2014,04,02,12,18,10.10
2014,04,02,12,19,10.10
2014,04,02,12,20,10.00
2014,04,02,12,21,10.10
2014,04,02,12,22,10.10
2014,04,02,12,23,10.10
2014,04,02,12,24,10.20
2014,04,02,12,25,10.20
2014,04,02,12,26,10.10
2014,04,02,12,27,10.10
2014,04,02,12,28,10.10
2014,04,02,12,29,10.10
2014,04,02,12,30,10.10
2014,04,02,12,31,10.20
2014,04,02,12,32,10.20
2014,04,02,12,33,10.10
2014,04,02,12,34,10.10
2014,04,02,12,35,10.10
2014,04,02,12,36,10.10
2014,04,02,12,37,10.10
2014,04,02,12,38,10.10
2014,04,02,12,39,10.30
2014,04,02,12,40,10.50
2014,04,02,12,41,10.50
2014,04,02,12,42,10.40
2014,04,02,12,43,10.40
2014,04,02,12,44,10.40
2014,04,02,12,45,10.40
2014,04,02,12,46,10.40
2014,04,02,12,47,10.40
2014,04,02,12,48,10.40
2014,04,02,12,49,10.50
2014,04,02,12,50,10.60
2014,04,02,12,51,10.60
2014,04,02,12,52,10.60
2014,04,02,12,53,10.60
2014,04,02,12,54,10.60
2014,04,02,12,55,10.60
2014,04,02,12,56,10.60
2014,04,02,12,57,10.70
2014,04,02,12,58,10.70
2014,04,02,12,59,10.80
2014,04,02,13,00,10.70
2014,04,02,13,01,10.70
2014,04,02,13,02,10.80
2014,04,02,13,03,10.80
2014,04,02,13,04,10.70
2014,04,02,13,05,10.80
2014,04,02,13,06,10.80
2014,04,02,13,07,10.70
2014,04,02,13,08,10.60
2014,04,02,13,09,10.60
2014,04,02,13,10,10.60
2014,04,02,13,11,10.60
2014,04,02,13,12,10.50
2014,04,02,13,13,10.40
2014,04,02,13,14,10.50
2014,04,02,13,15,10.50
2014,04,02,13,16,10.50
2014,04,02,13,17,10.60
2014,04,02,13,18,10.60
2014,04,02,13,19,10.60
2014,04,02,13,20,10.60
2014,04,02,13,21,10.60
2014,04,02,13,22,10.70
2014,04,02,13,23,10.70
2014,04,02,13,24,10.60
2014,04,02,13,25,10.60
2014,04,02,13,26,10.60
2014,04,02,13,27,10.60
2014,04,02,13,28,10.60
2014,04,02,13,29,10.60
2014,04,02,13,30,10.60
2014,04,02,13,31,10.70
2014,04,02,13,32,10.90
2014,04,02,13,33,10.90
2014,04,02,13,34,10.90
2014,04,02,13,35,10.90
2014,04,02,13,36,10.90
2014,04,02,13,37,11.00
2014,04,02,13,38,11.00
2014,04,02,13,39,10.90
2014,04,02,13,40,10.80
2014,04,02,13,41,10.80
2014,04,02,13,42,10.80
2014,04,02,13,43,10.80
2014,04,02,13,44,10.80
2014,04,02,13,45,10.80
2014,04,02,13,46,11.00
2014,04,02,13,47,11.10
2014,04,02,13,48,11.00
2014,04,02,13,49,10.90
2014,04,02,13,50,10.90
2014,04,02,13,51,10.90
2014,04,02,13,52,10.70
2014,04,02,13,53,10.60
2014,04,02,13,54,10.50
2014,04,02,13,55,10.40
2014,04,02,13,56,10.50
2014,04,02,13,57,10.50
2014,04,02,13,58,10.40
2014,04,02,13,59,10.40
2014,04,02,14,00,10.50
2014,04,02,14,01,10.50
2014,04,02,14,02,10.40
2014,04,02,14,03,10.40
2014,04,02,14,04,10.40
2014,04,02,14,05,10.60
2014,04,02,14,06,10.60
2014,04,02,14,07,10.60
2014,04,02,14,08,10.70
2014,04,02,14,09,10.70
2014,04,02,14,10,10.60
2014,04,02,14,11,10.50
2014,04,02,14,12,10.40
2014,04,02,14,13,10.30
2014,04,02,14,14,10.40
2014,04,02,14,15,10.50
2014,04,02,14,16,10.60
2014,04,02,14,17,10.60
2014,04,02,14,18,10.50
2014,04,02,14,19,10.50
2014,04,02,14,20,10.60
2014,04,02,14,21,10.60
2014,04,02,14,22,10.60
2014,04,02,14,23,10.60
2014,04,02,14,24,10.60
2014,04,02,14,25,10.60
2014,04,02,14,26,10.50
2014,04,02,14,27,10.40
2014,04,02,14,28,10.40
2014,04,02,14,29,10.40
2014,04,02,14,30,10.40
2014,04,02,14,31,10.40
2014,04,02,14,32,10.60
2014,04,02,14,33,10.60
2014,04,02,14,34,10.40
2014,04,02,14,35,10.40
2014,04,02,14,36,10.40
2014,04,02,14,37,10.50
2014,04,02,14,38,10.60
2014,04,02,14,39,10.60
2014,04,02,14,40,10.50
2014,04,02,14,41,10.40
2014,04,02,14,42,10.40
2014,04,02,14,43,10.40
2014,04,02,14,44,10.30
2014,04,02,14,45,10.30
2014,04,02,14,46,10.30
2014,04,02,14,47,10.20
2014,04,02,14,48,10.10
2014,04,02,14,49,10.10
2014,04,02,14,50,10.10
2014,04,02,14,51,10.20
2014,04,02,14,52,10.30
2014,04,02,14,53,10.30
2014,04,02,14,54,10.30
2014,04,02,14,55,10.20
2014,04,02,14,56,10.20
2014,04,02,14,57,10.30
2014,04,02,14,58,10.40
2014,04,02,14,59,10.40
2014,04,02,15,00,10.40
2014,04,02,15,01,10.40
2014,04,02,15,02,10.40
2014,04,02,15,03,10.40
2014,04,02,15,04,10.40
2014,04,02,15,05,10.50
2014,04,02,15,06,10.60
2014,04,02,15,07,10.70
2014,04,02,15,08,10.80
2014,04,02,15,09,10.80
2014,04,02,15,10,10.70
2014,04,02,15,11,10.70
2014,04,02,15,12,10.70
2014,04,02,15,13,10.60
2014,04,02,15,14,10.60
2014,04,02,15,15,10.70
2014,04,02,15,16,10.90
2014,04,02,15,17,10.90
2014,04,02,15,18,10.90
2014,04,02,15,19,10.90
2014,04,02,15,20,11.00
2014,04,02,15,21,11.10
2014,04,02,15,22,11.10
2014,04,02,15,23,11.10
2014,04,02,15,24,11.10
2014,04,02,15,25,11.10
2014,04,02,15,26,11.10
2014,04,02,15,27,11.10
2014,04,02,15,28,11.10
2014,04,02,15,29,11.20
2014,04,02,15,30,11.20
2014,04,02,15,31,11.30
2014,04,02,15,32,11.30
2014,04,02,15,33,11.30
2014,04,02,15,34,11.40
2014,04,02,15,35,11.40
2014,04,02,15,36,11.30
2014,04,02,15,37,11.30
2014,04,02,15,38,11.30
2014,04,02,15,39,11.40
2014,04,02,15,40,11.40
2014,04,02,15,41,11.40
2014,04,02,15,42,11.40
2014,04,02,15,43,11.40
2014,04,02,15,44,11.40
2014,04,02,15,45,11.30
2014,04,02,15,46,11.20
2014,04,02,15,47,11.20
2014,04,02,15,48,11.30
2014,04,02,15,49,11.30
2014,04,02,15,50,11.30
2014,04,02,15,51,11.30
2014,04,02,15,52,11.30
2014,04,02,15,53,11.30
2014,04,02,15,54,11.30
2014,04,02,15,55,11.30
2014,04,02,15,56,11.40
2014,04,02,15,57,11.40
2014,04,02,15,58,11.50
2014,04,02,15,59,11.50
2014,04,02,16,00,11.40
2014,04,02,16,01,11.50
2014,04,02,16,02,11.60
2014,04,02,16,03,11.60
2014,04,02,16,04,11.60
2014,04,02,16,05,11.60
2014,04,02,16,06,11.60
2014,04,02,16,07,11.60
2014,04,02,16,08,11.60
2014,04,02,16,09,11.60
2014,04,02,16,10,11.60
2014,04,02,16,11,11.60
2014,04,02,16,12,11.60
2014,04,02,16,13,11.60
2014,04,02,16,14,11.50
2014,04,02,16,15,11.40
2014,04,02,16,16,11.40
2014,04,02,16,17,11.40
2014,04,02,16,18,11.40
2014,04,02,16,19,11.40
2014,04,02,16,20,11.40
2014,04,02,16,21,11.50
2014,04,02,16,22,11.60
2014,04,02,16,23,11.60
2014,04,02,16,24,11.60
2014,04,02,16,25,11.60
2014,04,02,16,26,11.60
2014,04,02,16,27,11.60
2014,04,02,16,28,11.60
2014,04,02,16,29,11.60
2014,04,02,16,30,11.60
2014,04,02,16,31,11.70
2014,04,02,16,32,11.70
2014,04,02,16,33,11.70
2014,04,02,16,34,11.70
2014,04,02,16,35,11.70
2014,04,02,16,36,11.70
2014,04,02,16,37,11.80
2014,04,02,16,38,11.70
2014,04,02,16,39,11.70
2014,04,02,16,40,11.70
2014,04,02,16,41,11.80
2014,04,02,16,42,11.80
2014,04,02,16,43,11.80
2014,04,02,16,44,11.70
2014,04,02,16,45,11.60
2014,04,02,16,46,11.70
2014,04,02,16,47,11.70
2014,04,02,16,48,11.60
2014,04,02,16,49,11.60
2014,04,02,16,50,11.60
2014,04,02,16,51,11.60
2014,04,02,16,52,11.60
2014,04,02,16,53,11.60
2014,04,02,16,54,11.60
2014,04,02,16,55,11.60
2014,04,02,16,56,11.50
2014,04,02,16,57,11.40
2014,04,02,16,58,11.40
2014,04,02,16,59,11.50
2014,04,02,17,00,11.60
2014,04,02,17,01,11.70
2014,04,02,17,02,11.70
2014,04,02,17,03,11.60
2014,04,02,17,04,11.60
2014,04,02,17,05,11.60
2014,04,02,17,06,11.60
2014,04,02,17,07,11.60
2014,04,02,17,08,11.60
2014,04,02,17,09,11.60
2014,04,02,17,10,11.50
2014,04,02,17,11,11.40
2014,04,02,17,12,11.40
2014,04,02,17,13,11.40
2014,04,02,17,14,11.40
2014,04,02,17,15,11.40
2014,04,02,17,16,11.30
2014,04,02,17,17,11.20
2014,04,02,17,18,11.20
2014,04,02,17,19,11.20
2014,04,02,17,20,11.30
2014,04,02,17,21,11.40
2014,04,02,17,22,11.50
2014,04,02,17,23,11.60
2014,04,02,17,24,11.70
2014,04,02,17,25,11.80
2014,04,02,17,26,11.80
2014,04,02,17,27,11.80
2014,04,02,17,28,11.70
2014,04,02,17,29,11.60
2014,04,02,17,30,11.50
2014,04,02,17,31,11.40
2014,04,02,17,32,11.40
2014,04,02,17,33,11.40
2014,04,02,17,34,11.30
2014,04,02,17,35,11.30
2014,04,02,17,36,11.20
2014,04,02,17,37,11.20
2014,04,02,17,38,11.20
2014,04,02,17,39,11.20
2014,04,02,17,40,11.10
2014,04,02,17,41,11.20
2014,04,02,17,42,11.20
2014,04,02,17,43,11.30
2014,04,02,17,44,11.30
2014,04,02,17,45,11.40
2014,04,02,17,46,11.40
2014,04,02,17,47,11.30